[TLELIST]

Mailing List Information:

  • This mailing list is a public mailing list - anyone may join or leave, at any time.

  • This mailing list is announce-only.

International Space Station (ISS) / Hubble Space Telescope (HST) / Chandra X-Ray Observatory Orbital Data via EMAIL

Privacy Policy:

Private list

Archives:

[TLELIST] Current TLEs

Sent February 23rd 2018

HST 1 20580U 90037B 18053.64269487 +.00000434 +00000-0 +15635-4 0 9992 2 20580 028.4691 152.2797 0002685 352.7133 145.7619 15.08983221328066 ISS (ZARYA) 1 25544U 98067A 18053.57111333 +.00002316 +00000-0 +42206-4 0 9991 2 25544 051.6417 230.0986 0003352 123.7695 345.7256 15.54134237100693 CXO 1 25867U 99040B 18052.93243423 .00000666 00000-0 00000+0 0 9993 2 25867 72.3023 285.1787 6820164 245.2859 0.2858 0.37801058 16997 ____________________________________________________________________ These 2-Line ...

[TLELIST] Current TLEs

Sent February 22nd 2018

HST 1 20580U 90037B 18052.71342531 .00000466 00000-0 17592-4 0 9990 2 20580 28.4690 158.4221 0002647 342.4744 137.8910 15.08982799328017 ISS (ZARYA) 1 25544U 98067A 18052.92989505 +.00002384 +00000-0 +43244-4 0 9991 2 25544 051.6417 233.2963 0003374 121.8105 357.7685 15.54130847100593 CXO 1 25867U 99040B 18052.93243423 .00000666 00000-0 00000+0 0 9993 2 25867 72.3023 285.1787 6820164 245.2859 0.2858 0.37801058 16997 ____________________________________________________________________ These 2-Line ...

[TLELIST] Current TLEs

Sent February 21st 2018

HST 1 20580U 90037B 18051.88388889 +.00000489 +00000-0 +19009-4 0 9993 2 20580 028.4689 163.9054 0002640 333.7486 311.3663 15.08982399327793 ISS (ZARYA) 1 25544U 98067A 18051.96457625 +.00002577 +00000-0 +46169-4 0 9990 2 25544 051.6416 238.1089 0003437 117.8478 357.3261 15.54125912100440 CXO 1 25867U 99040B 18052.93243423 .00000666 00000-0 00000+0 0 9993 2 25867 72.3023 285.1787 6820164 245.2859 0.2858 0.37801058 16997 ____________________________________________________________________ These 2-Line ...

[TLELIST] Current TLEs

Sent February 20th 2018

HST 1 20580U 90037B 18050.79788153 +.00000509 +00000-0 +20241-4 0 9993 2 20580 028.4688 171.0840 0002606 321.7282 172.1415 15.08981846327635 ISS (ZARYA) 1 25544U 98067A 18050.93401291 +.00002375 +00000-0 +43119-4 0 9992 2 25544 051.6421 243.2500 0003274 115.3290 350.1785 15.54118910100289 CXO 1 25867U 99040B 18052.93243423 .00000666 00000-0 00000+0 0 9993 2 25867 72.3023 285.1787 6820164 245.2859 0.2858 0.37801058 16997 ____________________________________________________________________ These 2-Line ...

[TLELIST] Current TLEs

Sent February 19th 2018

HST 1 20580U 90037B 18049.80515706 .00000509 00000-0 20240-4 0 9994 2 20580 28.4687 177.6461 0002584 310.6900 179.6837 15.08981184327572 ISS (ZARYA) 1 25544U 98067A 18049.96745694 +.00002668 +00000-0 +47552-4 0 9991 2 25544 051.6414 248.0688 0003322 111.2880 342.9259 15.54113204100135 CXO 1 25867U 99040B 18052.93243423 .00000666 00000-0 00000+0 0 9993 2 25867 72.3023 285.1787 6820164 245.2859 0.2858 0.37801058 16997 ____________________________________________________________________ These 2-Line ...

[TLELIST] Current TLEs

Sent February 18th 2018

HST 1 20580U 90037B 18048.53803323 +.00000492 +00000-0 +19185-4 0 9995 2 20580 028.4686 186.0219 0002556 295.9814 137.3173 15.08980283327375 ISS (ZARYA) 1 25544U 98067A 18048.53986095 +.00001284 +00000-0 +26665-4 0 9990 2 25544 051.6419 255.1811 0003571 108.3921 273.4252 15.54102564099917 CXO 1 25867U 99040B 18050.28807206 +.00000686 +00000-0 +00000-0 0 9997 2 25867 072.3123 285.2165 6818661 245.3654 000.2662 00.37805937005847 ____________________________________________________________________ These 2-Line ...

[TLELIST] Current TLEs

Sent February 17th 2018

HST 1 20580U 90037B 18047.81928258 +.00000473 +00000-0 +18031-4 0 9998 2 20580 028.4686 190.7731 0002546 287.6655 193.4078 15.08979806327181 ISS (ZARYA) 1 25544U 98067A 18047.86152778 +.00001107 +00000-0 +23991-4 0 9991 2 25544 051.6418 258.5630 0003559 107.1173 077.0669 15.54099331099809 CXO 1 25867U 99040B 18050.28807206 +.00000686 +00000-0 +00000-0 0 9997 2 25867 072.3123 285.2165 6818661 245.3654 000.2662 00.37805937005847 ____________________________________________________________________ These 2-Line ...

[TLELIST] Current TLEs

Sent February 16th 2018

HST 1 20580U 90037B 18047.20087963 .00000526 00000-0 21282-4 0 9991 2 20580 28.4686 194.8606 0002546 280.5735 74.4786 15.08979864327175 ISS (ZARYA) 1 25544U 98067A 18046.55817189 +.00001353 +00000-0 +27714-4 0 9990 2 25544 051.6417 265.0608 0003589 103.0964 344.3049 15.54096060099608 CXO 1 25867U 99040B 18047.64300711 .00000664 00000-0 00000+0 0 9997 2 25867 72.3282 285.2530 6818539 245.4478 0.1407 0.37807745 16979 ____________________________________________________________________ These 2-Line ...

[TLELIST] Current TLEs

Sent February 15th 2018

HST 1 20580U 90037B 18045.83961632 .00000485 00000-0 18791-4 0 9997 2 20580 28.4685 203.8588 0002512 264.8896 240.6853 15.08978879326974 ISS (ZARYA) 1 25544U 98067A 18045.38680556 +.00001727 +00000-0 +33375-4 0 9991 2 25544 051.6423 270.9001 0003539 101.5830 267.9914 15.54093389099429 CXO 1 25867U 99040B 18047.64300711 .00000664 00000-0 00000+0 0 9997 2 25867 72.3282 285.2530 6818539 245.4478 0.1407 0.37807745 16979 ____________________________________________________________________ These 2-Line ...

[TLELIST] Current TLEs

Sent February 14th 2018

HST 1 20580U 90037B 18044.84749906 +.00000448 +00000-0 +16499-4 0 9997 2 20580 028.4685 210.4167 0002511 253.4199 251.9756 15.08978162326736 ISS (ZARYA) 1 25544U 98067A 18044.97086806 +.00001540 +00000-0 +30547-4 0 9994 2 25544 051.6423 272.9736 0003536 100.1059 100.8646 15.54090790099353 CXO 1 25867U 99040B 18044.99677716 .00000611 00000-0 00000+0 0 9996 2 25867 72.3479 285.2904 6819457 245.5357 359.8581 0.37804135 16965 ____________________________________________________________________ These 2-Line ...

< < Previous

Index

 

this list's archives:

(archive rss , atom rss/atom )

Administration